Location: Altenst�hlen
(53.5567°N, 8.9425°E)
Time: 15:13:06
(UTC+00:00)

Cosmos 2151 - Pass Details

Date: 23 October 2019
Orbit: 582 x 600 km, 82.5° (Epoch: 14 November)

Event Time Altitude Azimuth Distance (km) Brightness Sun altitude
Rises 17:54:08 0° 352° (N) 2,864 6.6 -16.0°
Reaches altitude 10° 17:56:26 10° 358° (N) 1,957 5.7 -16.3°
Maximum altitude 18:00:37 46° 73° (ENE) 814 3.2 -16.9°
Enters shadow 18:02:29 28° 129° (SE) 1,135 4.0 -17.2°
